TimePST,TemperatureF,Dew PointF,Humidity,Sea Level PressureIn,VisibilityMPH,Wind Direction,Wind SpeedMPH,Gust SpeedMPH,PrecipitationIn,Events,Conditions,WindDirDegrees,DateUTC
12:12 AM,42.1,-9999,N/A,30.18,0.5,East,3.5,-,N/A,Fog,Fog,90,2013-12-27 08:12:00
12:41 AM,41.0,-9999,N/A,30.18,0.2,Calm,Calm,-,N/A,Fog,Fog,0,2013-12-27 08:41:00
12:53 AM,39.9,-9999,N/A,30.19,0.5,Calm,Calm,-,N/A,Fog,Fog,0,2013-12-27 08:53:00
1:08 AM,39.9,-9999,N/A,30.17,1.5,Calm,Calm,-,N/A,,Mostly Cloudy,0,2013-12-27 09:08:00
1:15 AM,39.9,-9999,N/A,30.17,0.8,Calm,Calm,-,N/A,,Mostly Cloudy,0,2013-12-27 09:15:00
1:33 AM,39.0,39.0,100,30.17,1.0,Calm,Calm,-,N/A,,Overcast,0,2013-12-27 09:33:00
1:53 AM,39.9,39.0,97,30.17,1.8,Calm,Calm,-,N/A,,Overcast,0,2013-12-27 09:53:00
1:56 AM,39.9,39.9,100,30.16,3.0,Calm,Calm,-,N/A,,Overcast,0,2013-12-27 09:56:00
2:53 AM,39.9,39.9,100,30.17,7.0,Calm,Calm,-,N/A,,Overcast,0,2013-12-27 10:53:00
3:53 AM,39.9,39.9,100,30.15,5.0,NW,3.5,-,N/A,,Overcast,320,2013-12-27 11:53:00
4:35 AM,39.9,39.9,100,30.13,2.0,SE,4.6,-,N/A,,Mostly Cloudy,130,2013-12-27 12:35:00
4:38 AM,39.9,39.9,100,30.13,1.2,SE,5.8,-,N/A,,Mostly Cloudy,130,2013-12-27 12:38:00
4:46 AM,39.9,39.9,100,30.13,0.5,SE,4.6,-,N/A,Fog,Fog,130,2013-12-27 12:46:00
4:53 AM,39.9,39.9,100,30.13,0.5,Calm,Calm,-,N/A,Fog,Fog,0,2013-12-27 12:53:00
4:59 AM,41.0,39.9,96,30.12,1.5,Calm,Calm,-,N/A,,Overcast,0,2013-12-27 12:59:00
5:01 AM,41.0,39.9,96,30.12,3.0,Calm,Calm,-,N/A,,Overcast,0,2013-12-27 13:01:00
5:53 AM,42.1,-9999,N/A,30.13,7.0,Calm,Calm,-,N/A,,Overcast,0,2013-12-27 13:53:00
6:53 AM,44.1,41.0,89,30.12,6.0,Calm,Calm,-,0.01,Rain,Light Rain,0,2013-12-27 14:53:00
7:17 AM,45.0,41.0,86,30.12,2.5,Calm,Calm,-,0.03,Rain,Rain,0,2013-12-27 15:17:00
7:26 AM,45.0,42.1,90,30.12,5.0,Variable,5.8,-,0.03,Rain,Light Rain,0,2013-12-27 15:26:00
7:51 AM,46.4,42.8,87,30.13,3.0,Variable,3.5,-,0.04,Rain,Light Rain,0,2013-12-27 15:51:00
7:53 AM,46.0,42.1,86,30.13,2.5,SSW,4.6,-,0.04,Rain,Light Rain,200,2013-12-27 15:53:00
8:13 AM,46.0,42.1,86,30.13,1.8,Variable,4.6,-,0.02,Rain,Rain,0,2013-12-27 16:13:00
8:31 AM,46.0,42.1,86,30.13,3.0,South,6.9,-,0.07,Rain,Light Rain,190,2013-12-27 16:31:00
8:40 AM,45.0,42.1,90,30.13,2.5,South,6.9,-,0.08,Rain,Rain,190,2013-12-27 16:40:00
8:53 AM,45.0,42.1,90,30.14,1.8,South,6.9,-,0.12,Rain,Rain,190,2013-12-27 16:53:00
9:02 AM,45.0,42.1,90,30.14,1.8,South,6.9,-,0.03,Rain,Heavy Rain,180,2013-12-27 17:02:00
9:14 AM,46.0,42.1,86,30.14,2.0,Variable,5.8,-,0.08,Rain,Rain,0,2013-12-27 17:14:00
9:22 AM,46.0,43.0,89,30.14,1.2,Variable,6.9,-,0.10,Rain,Rain,0,2013-12-27 17:22:00
9:53 AM,46.0,43.0,89,30.17,1.0,SSW,6.9,-,0.20,Rain,Rain,200,2013-12-27 17:53:00
10:00 AM,46.0,43.0,89,30.16,1.0,SSW,5.8,-,0.02,Rain,Rain,200,2013-12-27 18:00:00
10:17 AM,46.9,44.1,90,30.16,1.2,SSW,5.8,-,0.06,Rain,Rain,210,2013-12-27 18:17:00
10:24 AM,46.9,44.1,90,30.16,1.8,SSW,6.9,-,0.06,Rain,Light Rain,200,2013-12-27 18:24:00
10:33 AM,46.9,44.1,90,30.17,0.8,SSW,9.2,-,0.07,Rain,Light Rain,200,2013-12-27 18:33:00
10:44 AM,46.9,44.1,90,30.18,1.0,WSW,9.2,-,0.07,Rain,Light Rain,250,2013-12-27 18:44:00
10:53 AM,46.9,44.1,90,30.19,1.2,Variable,3.5,-,0.08,Rain,Light Rain,0,2013-12-27 18:53:00
10:56 AM,48.0,45.0,89,30.19,2.0,NW,9.2,-,0.00,Rain,Light Rain,310,2013-12-27 18:56:00
11:01 AM,48.0,45.0,89,30.19,4.0,Variable,3.5,-,0.00,,Overcast,0,2013-12-27 19:01:00
11:53 AM,50.0,46.0,86,30.20,4.0,Calm,Calm,-,0.00,,Overcast,0,2013-12-27 19:53:00
12:53 PM,50.0,45.0,83,30.22,4.0,Variable,6.9,-,N/A,,Haze,0,2013-12-27 20:53:00
1:20 PM,50.0,45.0,83,30.21,4.0,NW,5.8,-,N/A,,Haze,320,2013-12-27 21:20:00
1:53 PM,48.9,44.1,83,30.22,5.0,WNW,5.8,-,N/A,,Haze,300,2013-12-27 21:53:00
2:19 PM,48.9,44.1,83,30.22,4.0,Variable,6.9,-,N/A,,Haze,0,2013-12-27 22:19:00
2:53 PM,48.9,44.1,83,30.23,4.0,WNW,9.2,-,N/A,,Haze,290,2013-12-27 22:53:00
3:34 PM,48.9,44.1,83,30.26,4.0,Variable,4.6,-,N/A,,Haze,0,2013-12-27 23:34:00
3:53 PM,48.0,44.1,86,30.27,4.0,NW,4.6,-,N/A,,Overcast,310,2013-12-27 23:53:00
4:05 PM,48.0,44.1,86,30.26,3.0,NW,4.6,-,N/A,,Overcast,310,2013-12-28 00:05:00
4:13 PM,48.0,44.1,86,30.26,2.5,NW,4.6,-,N/A,,Overcast,310,2013-12-28 00:13:00
4:29 PM,48.0,44.1,86,30.26,1.5,NW,3.5,-,N/A,,Overcast,310,2013-12-28 00:29:00
4:45 PM,48.0,44.1,86,30.27,3.0,NW,6.9,-,N/A,,Overcast,320,2013-12-28 00:45:00
4:53 PM,48.0,44.1,86,30.28,4.0,NNW,5.8,-,N/A,,Overcast,330,2013-12-28 00:53:00
5:06 PM,46.9,44.1,90,30.28,2.0,NW,5.8,-,0.00,Rain,Light Rain,310,2013-12-28 01:06:00
5:20 PM,46.9,44.1,90,30.28,3.0,NNW,9.2,-,0.00,,Overcast,330,2013-12-28 01:20:00
5:53 PM,46.9,44.1,90,30.31,2.0,WNW,5.8,-,0.00,Rain,Light Rain,300,2013-12-28 01:53:00
6:08 PM,46.9,44.1,90,30.30,1.8,WNW,5.8,-,0.01,Rain,Light Rain,300,2013-12-28 02:08:00
6:17 PM,46.9,44.1,90,30.31,2.5,NW,8.1,-,0.01,,Overcast,310,2013-12-28 02:17:00
6:43 PM,46.9,43.0,86,30.31,3.0,WNW,5.8,-,0.01,,Overcast,290,2013-12-28 02:43:00
6:53 PM,46.9,43.0,86,30.32,4.0,NW,6.9,-,0.01,,Overcast,320,2013-12-28 02:53:00
7:24 PM,46.9,42.1,83,30.33,5.0,NW,8.1,-,N/A,,Haze,320,2013-12-28 03:24:00
7:53 PM,46.0,42.1,86,30.34,5.0,WNW,4.6,-,N/A,,Overcast,300,2013-12-28 03:53:00
8:22 PM,46.0,42.1,86,30.34,5.0,Calm,Calm,-,N/A,,Overcast,0,2013-12-28 04:22:00
8:53 PM,46.0,42.1,86,30.35,4.0,Calm,Calm,-,N/A,,Overcast,0,2013-12-28 04:53:00
9:19 PM,46.0,42.1,86,30.35,4.0,Calm,Calm,-,N/A,,Overcast,0,2013-12-28 05:19:00
9:53 PM,45.0,42.1,90,30.36,5.0,SSE,3.5,-,N/A,,Overcast,150,2013-12-28 05:53:00
10:53 PM,45.0,42.1,90,30.38,4.0,Calm,Calm,-,N/A,,Overcast,0,2013-12-28 06:53:00
11:19 PM,46.0,42.1,86,30.37,4.0,Calm,Calm,-,N/A,,Overcast,0,2013-12-28 07:19:00
11:34 PM,46.0,42.1,86,30.37,5.0,Calm,Calm,-,N/A,,Overcast,0,2013-12-28 07:34:00
11:53 PM,46.0,42.1,86,30.39,5.0,Calm,Calm,-,N/A,,Overcast,0,2013-12-28 07:53:00